OneWeb SL0370

operational
NORAD ID: 49296 Int'l Des: 2021-090 Owner: ONEWEBN Country: UK Constellation: oneweb
LEOCIRCULARPOLARONEWEB_TYPE

OneWeb SL0370について

説明を読み込み中...

リアルタイム位置

3D地球を読み込み中...

次回通過

高度履歴

Altitude vs Time

uPlot chart will show altitude changes over time

軌道要素

1 49296U 21090T 25305.44762287 .00000055 00000-0 10318-3 0 9993
2 49296 87.9190 319.8627 0002124 85.8055 274.3321 13.20772150199809
Epoch: Nov 1, 2025 • Age: 16 hours

現在のステータス

高度 1194.3 km
速度 7.26 km/s
衛星直下点 -30.80°S, 64.09°E
打ち上げ日 Oct 14, 2021
運用期間 4 years
タイプ internet

技術仕様

分類 Payload
質量 148.00 kg
乾燥質量 140.00 kg
総質量 148.00 kg
長さ 1.30 m
直径 1.00 m
スパン 5.00 m
形状 Trapezoid+2 pan
製造者 ONEWUS
バスタイプ ARROW
フェーズステータス In Orbit
所有者/国 ONEWEBN/UK

大規模コンステレーション

Loading constellations...